Retour au catalogue

STARLINK-11616

ActifCommunicationsVLEO
NORAD 63137·PAYLOAD·🇺🇸 United States

Lancé Mar 3, 2025 depuis Cape Canaveral Space Force Station

Loading…

Prochains Passages (prochaines 24 heures)

TLE

FraisSource: CelesTrak SupGP

Époque: Sep 15, 2026, 03:10 UTC

1 63137C 25043F   26258.13243056 -.00042358  00000+0 -32906-3 0  2585
2 63137  43.0004 188.4886 0001471 272.2403 325.9469 15.70855120    12

Suivez STARLINK-11616 en temps réel avec AllMySat

Download on the App Store